This is the latest recevied weather packets stored in our database for station/object KD4MBW. If no packets are shown the sender has not sent any weather packets the latest 10 day(s).
| Time | Temp. | Humidity | Pressure | Rain* | Wind** | Luminosity | Snow |
|---|---|---|---|---|---|---|---|
| 1787459179 | 25.56° C | 99% | 1014.9 hPa | 0 mm | - | 0 W/m² | - |
| 1787458874 | 25.56° C | 99% | 1014.9 hPa | 0 mm | - | 0 W/m² | - |
| 1787458568 | 26.11° C | 99% | 1015.1 hPa | 0 mm | - | 0 W/m² | - |
| 1787458263 | 25.56° C | 99% | 1015 hPa | 0 mm | - | 0 W/m² | - |
| 1787457959 | 25.56° C | 99% | 1015.1 hPa | 0 mm | - | 0 W/m² | - |
| 1787457655 | 26.11° C | 99% | 1015 hPa | 0 mm | - | 0 W/m² | - |
| 1787457350 | 26.11° C | 99% | 1015.2 hPa | 0 mm | - | 0 W/m² | - |
| 1787457045 | 26.11° C | 99% | 1015.1 hPa | 0 mm | - | 0 W/m² | - |
| 1787456740 | 26.11° C | 99% | 1015.1 hPa | 0 mm | - | 0 W/m² | - |
| 1787456437 | 26.11° C | 99% | 1015.1 hPa | 0 mm | - | 0 W/m² | - |
| 1787456132 | 26.11° C | 98% | 1014.9 hPa | 0 mm | - | 0 W/m² | - |
| 1787455827 | 26.11° C | 98% | 1014.8 hPa | 0 mm | - | 0 W/m² | - |
| 1787455521 | 26.11° C | 98% | 1015 hPa | 0 mm | - | 0 W/m² | - |
| 1787455216 | 26.11° C | 98% | 1014.9 hPa | 0 mm | - | 0 W/m² | - |
| 1787454913 | 26.11° C | 98% | 1015.2 hPa | 0 mm | - | 0 W/m² | - |
| 1787454609 | 26.67° C | 98% | 1015 hPa | 0 mm | - | 0 W/m² | - |
| 1787454304 | 26.67° C | 98% | 1015 hPa | 0 mm | - | 0 W/m² | - |
| 1787454003 | 26.67° C | 98% | 1015.2 hPa | 0 mm | - | 0 W/m² | - |
| 1787453699 | 27.22° C | 95% | 1015.1 hPa | 0 mm | - | 0 W/m² | - |
| 1787453395 | 27.22° C | 95% | 1015.2 hPa | 0 mm | - | 0 W/m² | - |
| 1787453094 | 27.22° C | 95% | 1015.2 hPa | 0 mm | - | 0 W/m² | - |
| 1787452790 | 26.67° C | 95% | 1015.1 hPa | 0 mm | - | 0 W/m² | - |
| 1787452488 | 26.67° C | 95% | 1015.2 hPa | 0 mm | - | 0 W/m² | - |
| 1787452184 | 27.22° C | 95% | 1015.1 hPa | 0 mm | - | 0 W/m² | - |
| 1787451880 | 27.22° C | 93% | 1015.2 hPa | 0 mm | - | 0 W/m² | - |
* Rain latest hour (hover to see other rain measurements)
** Current wind speed in m/s (hover to see current wind gust speed)